Location: Bosmont
(49.7318°N, 3.8587°E)
Time: 17:35:54
(UTC+00:00)

Meteor 1-11 Rocket - Pass Details

Date: 01 March 2024
Orbit: 830 x 915 km, 81.2° (Epoch: 12 April)

Event Time Altitude Azimuth Distance (km) Brightness Sun altitude
Exits shadow 22:14:52 18° 356° (N) 2,059 6.1 -42.4°
Drops below altitude 10° 22:16:28 10° 3° (N) 2,609 6.7 -42.5°
Sets 22:19:05 0° 9° (N) 3,560 7.4 -42.7°
